FW0014 Weather Reports


time (UTC)temp
C
wind
direction
speed
KPH
gust
KPH
rain 1hr
cm
rain 24hr
cm
rain mn
cm
humidity
%
barometer
mb
20260831234349 34 129 16.1 24.1 0.00 0.00 0.00 38 1015.6
20260831234044 33 156 9.7 20.9 0.00 0.00 0.00 38 1012.6
20260831233825 34 146 12.9 19.3 0.00 0.00 0.00 38 1015.6
20260831233535 34 135 9.7 19.3 0.00 0.00 0.00 38 1012.7
20260831233322 34 141 11.3 19.3 0.00 0.00 0.00 38 1015.6
20260831233026 34 139 11.3 19.3 0.00 0.00 0.00 37 1012.6
20260831232820 34 153 9.7 19.3 0.00 0.00 0.00 37 1015.6
20260831232508 34 145 9.7 19.3 0.00 0.00 0.00 36 1012.6
20260831232317 34 136 9.7 19.3 0.00 0.00 0.00 37 1015.7
20260831232102 34 39 12.9 19.3 0.00 0.00 0.00 37 1012.7
20260831231814 34 136 8.0 19.3 0.00 0.00 0.00 37 1015.7
20260831231555 34 98 6.4 19.3 0.00 0.00 0.00 37 1012.7
20260831231331 34 166 11.3 19.3 0.00 0.00 0.00 37 1015.7
20260831231044 34 159 0.0 11.3 0.00 0.00 0.00 37 1012.7
20260831230829 35 142 0.0 11.3 0.00 0.00 0.00 38 1015.7
20260831230533 34 122 0.0 17.7 0.00 0.00 0.00 38 1012.6
20260831230325 35 125 6.4 19.3 0.00 0.00 0.00 37 1015.6
20260831230024 34 130 9.7 19.3 0.00 0.00 0.00 37 1012.7
20260831225820 35 94 9.7 19.3 0.00 0.00 0.00 37 1015.7
20260831225547 34 103 6.4 20.9 0.00 0.00 0.00 37 1012.7
20260831225318 35 137 9.7 20.9 0.00 0.00 0.00 37 1015.7
20260831225018 34 141 11.3 20.9 0.00 0.00 0.00 36 1012.8
20260831224815 35 132 9.7 19.3 0.00 0.00 0.00 36 1015.8
20260831224602 34 112 3.2 14.5 0.00 0.00 0.00 36 1012.8
20260831224354 35 145 0.0 0.0 0.00 0.00 0.00 36 1015.8
20260831224032 34 104 0.0 0.0 0.00 0.00 0.00 36 1012.9
20260831223830 35 152 0.0 0.0 0.00 0.00 0.00 35 1015.8
20260831223514 34 122 0.0 0.0 0.00 0.00 0.00 36 1012.8
20260831223328 35 140 0.0 0.0 0.00 0.00 0.00 36 1015.8
20260831223004 34 106 0.0 0.0 0.00 0.00 0.00 36 1012.9
20260831222825 34 158 0.0 0.0 0.00 0.00 0.00 36 1015.9
20260831222558 34 164 0.0 0.0 0.00 0.00 0.00 36 1012.8
20260831222322 34 174 0.0 0.0 0.00 0.00 0.00 36 1015.9
20260831222047 34 170 0.0 0.0 0.00 0.00 0.00 36 1013.0
20260831221819 34 166 0.0 0.0 0.00 0.00 0.00 36 1016.0
20260831221539 34 158 0.0 0.0 0.00 0.00 0.00 37 1013.0
20260831221316 34 193 0.0 0.0 0.00 0.00 0.00 36 1016.0
20260831221033 33 194 0.0 0.0 0.00 0.00 0.00 36 1013.0
20260831220813 34 163 0.0 0.0 0.00 0.00 0.00 36 1016.1
20260831220514 33 164 0.0 0.0 0.00 0.00 0.00 38 1013.1
20260831220331 34 161 0.0 0.0 0.00 0.00 0.00 37 1016.1
20260831220006 33 144 0.0 0.0 0.00 0.00 0.00 39 1013.2
20260831215851 34 145 0.0 0.0 0.00 0.00 0.00 39 1016.1
20260831215538 33 147 0.0 0.0 0.00 0.00 0.00 40 1013.2
20260831215330 34 170 0.0 0.0 0.00 0.00 0.00 39 1016.3
20260831215031 34 115 0.0 0.0 0.00 0.00 0.00 38 1013.3
20260831214826 34 156 0.0 0.0 0.00 0.00 0.00 37 1016.3
20260831214526 34 147 0.0 0.0 0.00 0.00 0.00 38 1013.3
20260831214322 34 133 0.0 0.0 0.00 0.00 0.00 38 1016.4
20260831214026 34 129 0.0 0.0 0.00 0.00 0.00 38 1013.4
20260831213822 34 149 0.0 0.0 0.00 0.00 0.00 38 1016.4
20260831213519 34 108 0.0 0.0 0.00 0.00 0.00 38 1013.4
20260831213319 34 149 0.0 0.0 0.00 0.00 0.00 38 1016.5
20260831213044 34 142 0.0 0.0 0.00 0.00 0.00 37 1013.4
20260831212815 34 147 0.0 0.0 0.00 0.00 0.00 38 1016.5
20260831212536 34 168 0.0 0.0 0.00 0.00 0.00 38 1013.5
20260831212313 34 159 0.0 0.0 0.00 0.00 0.00 38 1016.5
20260831212032 34 164 0.0 0.0 0.00 0.00 0.00 39 1013.5
20260831211813 34 131 0.0 0.0 0.00 0.00 0.00 39 1016.5
20260831211516 34 147 0.0 0.0 0.00 0.00 0.00 40 1013.5
20260831211329 34 164 0.0 0.0 0.00 0.00 0.00 39 1016.5
20260831211008 34 163 0.0 0.0 0.00 0.00 0.00 39 1013.5
20260831210827 34 143 0.0 0.0 0.00 0.00 0.00 40 1016.6
20260831210602 33 151 0.0 0.0 0.00 0.00 0.00 39 1013.7
20260831210325 34 106 0.0 0.0 0.00 0.00 0.00 38 1016.7
20260831210053 33 154 0.0 0.0 0.00 0.00 0.00 37 1013.7
20260831205841 34 150 0.0 0.0 0.00 0.00 0.00 37 1016.8
20260831205532 33 152 0.0 0.0 0.00 0.00 0.00 39 1013.8
20260831205338 33 179 0.0 0.0 0.00 0.00 0.00 40 1016.9
20260831205054 33 144 0.0 0.0 0.00 0.00 0.00 38 1014.0
20260831204814 33 112 0.0 0.0 0.00 0.00 0.00 39 1017.0
20260831204552 33 106 0.0 0.0 0.00 0.00 0.00 39 1014.0
20260831204352 33 159 0.0 0.0 0.00 0.00 0.00 39 1017.0
20260831204008 33 145 0.0 0.0 0.00 0.00 0.00 40 1014.1
20260831203827 33 150 0.0 0.0 0.00 0.00 0.00 40 1017.2
20260831203602 33 145 0.0 0.0 0.00 0.00 0.00 41 1014.2
20260831203326 33 147 0.0 0.0 0.00 0.00 0.00 42 1017.3
20260831203055 33 83 0.0 0.0 0.00 0.00 0.00 42 1014.3
20260831202844 33 95 0.0 0.0 0.00 0.00 0.00 42 1017.3
20260831202523 33 137 0.0 0.0 0.00 0.00 0.00 43 1014.4
20260831202319 33 135 0.0 0.0 0.00 0.00 0.00 43 1017.4
20260831202048 33 125 0.0 0.0 0.00 0.00 0.00 43 1014.4
20260831201817 33 144 0.0 0.0 0.00 0.00 0.00 43 1017.5
20260831201542 33 151 0.0 0.0 0.00 0.00 0.00 43 1014.5
20260831201318 33 149 0.0 0.0 0.00 0.00 0.00 43 1017.5
20260831201034 33 148 0.0 0.0 0.00 0.00 0.00 44 1014.5
20260831200837 33 126 0.0 0.0 0.00 0.00 0.00 44 1017.5
20260831200558 33 112 0.0 0.0 0.00 0.00 0.00 44 1014.6
20260831200354 33 157 0.0 0.0 0.00 0.00 0.00 43 1017.7
20260831200040 33 167 0.0 0.0 0.00 0.00 0.00 44 1014.6
20260831195831 33 140 0.0 0.0 0.00 0.00 0.00 44 1017.6
20260831195516 33 175 0.0 0.0 0.00 0.00 0.00 44 1014.7
20260831195330 33 181 0.0 0.0 0.00 0.00 0.00 45 1017.9
20260831195005 33 162 0.0 0.0 0.00 0.00 0.00 45 1014.9
20260831194830 33 158 0.0 0.0 0.00 0.00 0.00 44 1017.9
20260831194557 33 163 0.0 0.0 0.00 0.00 0.00 44 1014.9
20260831194329 33 133 0.0 0.0 0.00 0.00 0.00 44 1017.9
20260831194050 33 97 0.0 0.0 0.00 0.00 0.00 45 1014.9
20260831193848 33 139 0.0 0.0 0.00 0.00 0.00 45 1018.0
20260831193524 33 132 0.0 0.0 0.00 0.00 0.00 45 1015.0
20260831193325 33 120 0.0 0.0 0.00 0.00 0.00 46 1018.0
20260831193010 33 139 0.0 0.0 0.00 0.00 0.00 46 1015.0
20260831192844 33 107 0.0 0.0 0.00 0.00 0.00 46 1018.1
20260831192539 33 110 0.0 0.0 0.00 0.00 0.00 45 1015.0
20260831192321 33 127 0.0 0.0 0.00 0.00 0.00 46 1018.1
20260831192035 33 203 0.0 0.0 0.00 0.00 0.00 46 1015.1
20260831191821 33 178 0.0 0.0 0.00 0.00 0.00 46 1018.2
20260831191533 33 100 0.0 0.0 0.00 0.00 0.00 47 1015.0
20260831191319 33 142 0.0 0.0 0.00 0.00 0.00 46 1018.2
20260831191020 33 109 0.0 0.0 0.00 0.00 0.00 46 1014.9
20260831190837 33 159 0.0 0.0 0.00 0.00 0.00 45 1018.1
20260831190544 33 137 0.0 0.0 0.00 0.00 0.00 45 1015.1
20260831190350 33 89 0.0 0.0 0.00 0.00 0.00 46 1018.2
20260831190006 33 141 0.0 0.0 0.00 0.00 0.00 47 1015.1
20260831185845 33 174 0.0 0.0 0.00 0.00 0.00 47 1018.3
20260831185538 33 106 0.0 0.0 0.00 0.00 0.00 48 1015.2
20260831185342 33 143 0.0 0.0 0.00 0.00 0.00 48 1018.4
20260831185102 32 104 0.0 0.0 0.00 0.00 0.00 48 1015.3
20260831184817 33 135 0.0 0.0 0.00 0.00 0.00 48 1018.5
20260831184605 32 161 0.0 0.0 0.00 0.00 0.00 48 1015.4
20260831184314 33 143 0.0 0.0 0.00 0.00 0.00 48 1018.5
20260831184051 33 123 0.0 0.0 0.00 0.00 0.00 49 1015.4
20260831183832 33 147 0.0 0.0 0.00 0.00 0.00 49 1018.5
20260831183546 32 204 0.0 0.0 0.00 0.00 0.00 49 1015.4
20260831183329 33 160 0.0 0.0 0.00 0.00 0.00 48 1018.6
20260831183040 32 127 0.0 0.0 0.00 0.00 0.00 48 1015.6
20260831182826 33 164 0.0 0.0 0.00 0.00 0.00 48 1018.7
20260831182529 32 155 0.0 0.0 0.00 0.00 0.00 49 1015.6
20260831182324 33 137 0.0 0.0 0.00 0.00 0.00 48 1018.7
20260831182011 32 179 0.0 0.0 0.00 0.00 0.00 49 1015.7
20260831181822 33 164 0.0 0.0 0.00 0.00 0.00 51 1018.7
20260831181501 32 162 0.0 0.0 0.00 0.00 0.00 51 1015.7
20260831181320 33 137 0.0 0.0 0.00 0.00 0.00 50 1018.8
20260831181056 32 157 0.0 0.0 0.00 0.00 0.00 51 1015.8
20260831180817 32 151 0.0 0.0 0.00 0.00 0.00 52 1018.7
20260831180545 32 164 0.0 0.0 0.00 0.00 0.00 54 1015.7
20260831180315 32 182 0.0 0.0 0.00 0.00 0.00 54 1018.9
20260831180045 32 165 0.0 0.0 0.00 0.00 0.00 52 1015.9
20260831175832 32 139 0.0 0.0 0.00 0.00 0.00 52 1018.9
20260831175519 32 195 0.0 0.0 0.00 0.00 0.00 54 1016.0
20260831175330 32 162 0.0 0.0 0.00 0.00 0.00 54 1019.1
20260831175009 31 147 0.0 0.0 0.00 0.00 0.00 54 1016.1
20260831174829 32 137 0.0 0.0 0.00 0.00 0.00 54 1019.4
20260831174601 31 174 0.0 0.0 0.00 0.00 0.00 55 1016.3
20260831174325 32 161 0.0 0.0 0.00 0.00 0.00 54 1019.4
20260831174055 32 149 0.0 0.0 0.00 0.00 0.00 55 1016.3
20260831173822 32 89 0.0 0.0 0.00 0.00 0.00 55 1019.4
20260831173543 31 131 0.0 0.0 0.00 0.00 0.00 55 1016.5
20260831173319 31 128 0.0 0.0 0.00 0.00 0.00 55 1019.5
20260831173035 31 213 0.0 0.0 0.00 0.00 0.00 55 1016.5
20260831172816 31 183 0.0 0.0 0.00 0.00 0.00 55 1019.4
20260831172525 31 155 0.0 0.0 0.00 0.00 0.00 55 1016.5
20260831172333 31 154 0.0 0.0 0.00 0.00 0.00 55 1019.5
20260831172009 31 127 0.0 0.0 0.00 0.00 0.00 54 1016.6
20260831171829 31 129 0.0 0.0 0.00 0.00 0.00 54 1019.6
20260831171539 31 174 0.0 0.0 0.00 0.00 0.00 57 1016.5
20260831171324 31 152 0.0 0.0 0.00 0.00 0.00 56 1019.5
20260831171003 31 202 0.0 0.0 0.00 0.00 0.00 57 1016.6
20260831170821 31 153 0.0 0.0 0.00 0.00 0.00 57 1019.6
20260831170555 31 174 0.0 0.0 0.00 0.00 0.00 56 1016.6
20260831170318 31 131 0.0 0.0 0.00 0.00 0.00 57 1019.6
20260831170046 31 142 0.0 0.0 0.00 0.00 0.00 57 1016.6
20260831165815 31 168 0.0 0.0 0.00 0.00 0.00 58 1019.6
20260831165540 30 187 0.0 0.0 0.00 0.00 0.00 59 1016.6
20260831165332 31 193 0.0 0.0 0.00 0.00 0.00 59 1019.6
20260831165028 30 173 0.0 0.0 0.00 0.00 0.00 59 1016.7
20260831164831 30 189 0.0 0.0 0.00 0.00 0.00 59 1019.6
20260831164521 30 166 0.0 0.0 0.00 0.00 0.00 59 1016.7
20260831164330 30 168 0.0 0.0 0.00 0.00 0.00 59 1019.8
20260831164002 30 161 0.0 0.0 0.00 0.00 0.00 60 1016.8
20260831163827 30 161 0.0 0.0 0.00 0.00 0.00 60 1019.8
20260831163555 30 224 0.0 0.0 0.00 0.00 0.00 62 1016.8
20260831163325 30 176 0.0 0.0 0.00 0.00 0.00 63 1019.8
20260831163047 30 184 0.0 0.0 0.00 0.00 0.00 63 1016.7
20260831162822 30 213 0.0 0.0 0.00 0.00 0.00 63 1019.7
20260831162537 30 184 0.0 0.0 0.00 0.00 0.00 64 1016.7
20260831162321 30 211 0.0 0.0 0.00 0.00 0.00 64 1019.7
20260831162030 30 165 0.0 0.0 0.00 0.00 0.00 64 1016.8
20260831161839 30 209 0.0 0.0 0.00 0.00 0.00 64 1019.9
20260831161554 29 187 0.0 0.0 0.00 0.00 0.00 64 1016.8
20260831161315 30 156 0.0 0.0 0.00 0.00 0.00 64 1019.7
20260831161048 29 133 0.0 0.0 0.00 0.00 0.00 66 1016.7
20260831160853 29 201 0.0 0.0 0.00 0.00 0.00 66 1019.8
20260831160508 29 169 0.0 0.0 0.00 0.00 0.00 66 1016.7
20260831160330 29 107 0.0 0.0 0.00 0.00 0.00 65 1019.8
20260831155827 29 186 0.0 0.0 0.00 0.00 0.00 66 1019.7
20260831155553 29 169 0.0 0.0 0.00 0.00 0.00 66 1016.7
20260831155324 29 216 0.0 0.0 0.00 0.00 0.00 68 1019.8
20260831155041 28 177 0.0 0.0 0.00 0.00 0.00 68 1016.6
20260831154822 29 187 0.0 0.0 0.00 0.00 0.00 68 1019.8
20260831154535 28 201 0.0 0.0 0.00 0.00 0.00 68 1016.7
20260831154318 28 208 0.0 0.0 0.00 0.00 0.00 69 1019.6
20260831154028 28 135 0.0 0.0 0.00 0.00 0.00 70 1016.6
20260831153814 28 188 0.0 0.0 0.00 0.00 0.00 71 1019.6
20260831153513 28 185 0.0 0.0 0.00 0.00 0.00 71 1016.5
20260831153329 28 231 0.0 0.0 0.00 0.00 0.00 71 1019.5
20260831153005 28 173 0.0 0.0 0.00 0.00 0.00 71 1016.5
20260831152826 28 170 0.0 0.0 0.00 0.00 0.00 71 1019.4
20260831152559 28 189 0.0 0.0 0.00 0.00 0.00 71 1016.4
20260831152322 28 233 0.0 0.0 0.00 0.00 0.00 71 1019.4
20260831152054 28 218 0.0 0.0 0.00 0.00 0.00 72 1016.4
20260831151819 28 241 0.0 0.0 0.00 0.00 0.00 74 1019.4
20260831151553 27 231 0.0 0.0 0.00 0.00 0.00 74 1016.4
20260831151317 28 152 0.0 0.0 0.00 0.00 0.00 73 1019.4
20260831151037 27 166 0.0 0.0 0.00 0.00 0.00 73 1016.4
20260831150815 27 251 0.0 0.0 0.00 0.00 0.00 74 1019.3
20260831150528 27 163 0.0 0.0 0.00 0.00 0.00 75 1016.3
20260831150332 27 216 0.0 0.0 0.00 0.00 0.00 75 1019.3
20260831150016 27 193 0.0 0.0 0.00 0.00 0.00 75 1016.3
20260831145849 27 222 0.0 0.0 0.00 0.00 0.00 76 1019.3
20260831145549 27 206 0.0 0.0 0.00 0.00 0.00 76 1016.3
20260831145325 27 165 0.0 0.0 0.00 0.00 0.00 77 1019.2
20260831145040 27 187 0.0 11.3 0.00 0.00 0.00 77 1016.2
20260831144822 27 255 0.0 16.1 0.00 0.00 0.00 78 1019.2
20260831144533 27 214 0.0 16.1 0.00 0.00 0.00 78 1016.2
20260831144319 27 197 1.6 17.7 0.00 0.00 0.00 78 1019.1
20260831144021 26 170 11.3 24.1 0.00 0.00 0.00 78 1016.1
20260831143816 27 187 12.9 24.1 0.00 0.00 0.00 79 1019.1
20260831143547 26 197 9.7 24.1 0.00 0.00 0.00 79 1016.1
20260831143335 26 183 14.5 24.1 0.00 0.00 0.00 79 1019.2
20260831143022 26 205 9.7 20.9 0.00 0.00 0.00 80 1016.1
20260831142832 26 196 14.5 20.9 0.00 0.00 0.00 80 1019.2
20260831142509 26 201 11.3 17.7 0.00 0.00 0.00 80 1016.2
20260831142350 26 210 11.3 17.7 0.00 0.00 0.00 81 1019.1
20260831142043 26 223 16.1 20.9 0.00 0.00 0.00 81 1016.1
20260831141846 26 235 11.3 17.7 0.00 0.00 0.00 81 1019.1
20260831141503 26 161 11.3 17.7 0.00 0.00 0.00 82 1016.1
20260831141323 26 197 11.3 17.7 0.00 0.00 0.00 82 1019.1
20260831141100 26 210 12.9 19.3 0.00 0.00 0.00 82 1016.1
20260831140820 26 229 8.0 17.7 0.00 0.00 0.00 82 1019.0
20260831140549 25 212 6.4 17.7 0.00 0.00 0.00 83 1016.0
20260831140339 26 186 11.3 17.7 0.00 0.00 0.00 83 1019.1
20260831140024 25 213 11.3 16.1 0.00 0.00 0.00 83 1016.2
20260831135835 25 201 11.3 16.1 0.00 0.00 0.00 83 1019.1
20260831135549 25 196 12.9 16.1 0.00 0.00 0.00 83 1016.1
20260831135332 25 165 9.7 16.1 0.00 0.00 0.00 84 1019.0
20260831135041 25 233 8.0 16.1 0.00 0.00 0.00 84 1016.0
20260831134830 25 209 9.7 16.1 0.00 0.00 0.00 84 1019.0
20260831134533 25 203 6.4 14.5 0.00 0.00 0.00 85 1016.0
20260831134329 25 217 9.7 12.9 0.00 0.00 0.00 85 1018.9
20260831134024 25 201 6.4 14.5 0.00 0.00 0.00 85 1015.9
20260831133825 25 183 8.0 16.1 0.00 0.00 0.00 85 1018.9
20260831133525 25 214 8.0 16.1 0.00 0.00 0.00 85 1015.8
20260831133324 25 195 9.7 16.1 0.00 0.00 0.00 85 1018.8
20260831133006 24 179 8.0 14.5 0.00 0.00 0.00 86 1015.9
20260831132821 25 215 6.4 14.5 0.00 0.00 0.00 86 1018.8
20260831132557 24 189 8.0 14.5 0.00 0.00 0.00 86 1015.8
20260831132319 24 214 8.0 12.9 0.00 0.00 0.00 86 1018.8
20260831132049 24 188 6.4 12.9 0.00 0.00 0.00 86 1015.7
20260831131817 24 188 4.8 12.9 0.00 0.00 0.00 86 1018.7
20260831131540 24 181 4.8 11.3 0.00 0.00 0.00 86 1015.7
20260831131315 24 175 8.0 11.3 0.00 0.00 0.00 87 1018.7
20260831131035 23 198 4.8 8.0 0.00 0.00 0.00 87 1015.8
20260831130832 24 191 4.8 9.7 0.00 0.00 0.00 87 1018.6
20260831130529 23 214 3.2 8.0 0.00 0.00 0.00 86 1015.7
20260831130331 23 214 4.8 6.4 0.00 0.00 0.00 87 1018.7
20260831130013 23 172 3.2 4.8 0.00 0.00 0.00 87 1015.6
20260831125850 23 172 3.2 6.4 0.00 0.00 0.00 86 1018.6
20260831125543 23 172 1.6 8.0 0.00 0.00 0.00 87 1015.5
20260831125326 23 173 3.2 8.0 0.00 0.00 0.00 87 1018.5
20260831125035 23 172 3.2 8.0 0.00 0.00 0.00 87 1015.4
20260831124824 23 172 4.8 8.0 0.00 0.00 0.00 87 1018.3
20260831124527 23 177 3.2 8.0 0.00 0.00 0.00 87 1015.3
20260831124322 23 177 3.2 8.0 0.00 0.00 0.00 86 1018.3
20260831124027 23 178 3.2 8.0 0.00 0.00 0.00 86 1015.4
20260831123819 23 178 4.8 8.0 0.00 0.00 0.00 86 1018.3
20260831123520 23 178 3.2 6.4 0.00 0.00 0.00 86 1015.3
20260831123317 23 177 3.2 6.4 0.00 0.00 0.00 86 1018.4
20260831123017 23 177 3.2 6.4 0.00 0.00 0.00 86 1015.3
20260831122814 23 177 3.2 6.4 0.00 0.00 0.00 86 1018.4
20260831122502 23 177 3.2 6.4 0.00 0.00 0.00 86 1015.3
20260831122328 23 178 4.8 6.4 0.00 0.00 0.00 86 1018.3
20260831122054 23 177 1.6 9.7 0.00 0.00 0.00 85 1015.3
20260831121826 23 177 1.6 9.7 0.00 0.00 0.00 85 1018.3
20260831121547 23 178 1.6 9.7 0.00 0.00 0.00 85 1015.2
20260831121344 23 177 4.8 9.7 0.00 0.00 0.00 85 1018.3
20260831121009 23 201 3.2 8.0 0.00 0.00 0.00 85 1015.3
20260831120821 23 201 3.2 8.0 0.00 0.00 0.00 85 1018.3
20260831120601 23 202 1.6 8.0 0.00 0.00 0.00 85 1015.2
20260831120320 23 201 4.8 8.0 0.00 0.00 0.00 85 1018.2
20260831120052 23 218 3.2 8.0 0.00 0.00 0.00 85 1015.0
20260831115818 23 201 4.8 8.0 0.00 0.00 0.00 85 1018.1
20260831115544 23 223 1.6 6.4 0.00 0.00 0.00 84 1015.1
20260831115315 23 210 3.2 6.4 0.00 0.00 0.00 84 1018.2
20260831115035 23 210 3.2 12.9 0.00 0.00 0.00 84 1015.2
20260831114832 23 211 3.2 12.9 0.00 0.00 0.00 84 1018.2
20260831114528 23 192 6.4 12.9 0.00 0.00 0.00 85 1015.3
20260831114330 23 203 6.4 12.9 0.00 0.00 0.00 84 1018.3
20260831114009 23 186 3.2 9.7 0.00 0.00 0.00 84 1015.3
20260831113828 23 197 4.8 9.7 0.00 0.00 0.00 84 1018.2
20260831113502 23 171 4.8 9.7 0.00 0.00 0.00 84 1015.1
20260831113325 23 171 4.8 9.7 0.00 0.00 0.00 84 1018.0
20260831113053 23 174 4.8 9.7 0.00 0.00 0.00 84 1015.0
20260831112822 23 181 6.4 9.7 0.00 0.00 0.00 84 1017.8
20260831112548 23 173 4.8 9.7 0.00 0.00 0.00 84 1014.8
20260831112320 23 174 4.8 9.7 0.00 0.00 0.00 83 1017.8
20260831112036 23 166 4.8 9.7 0.00 0.00 0.00 83 1014.9
20260831111818 23 219 4.8 8.0 0.00 0.00 0.00 83 1017.9
20260831111528 23 218 3.2 8.0 0.00 0.00 0.00 83 1015.0
20260831111315 23 197 4.8 8.0 0.00 0.00 0.00 83 1018.0
20260831111018 23 197 3.2 8.0 0.00 0.00 0.00 83 1014.9
20260831110832 23 197 4.8 6.4 0.00 0.00 0.00 83 1017.9
20260831110505 23 161 3.2 6.4 0.00 0.00 0.00 83 1014.8
20260831110330 23 160 3.2 8.0 0.00 0.00 0.00 82 1017.8
20260831110057 23 160 0.0 8.0 0.00 0.00 0.00 82 1014.8
20260831105827 23 162 3.2 8.0 0.00 0.00 0.00 82 1017.7
20260831105547 23 195 4.8 8.0 0.00 0.00 0.00 82 1014.7
20260831105345 23 174 3.2 6.4 0.00 0.00 0.00 82 1017.7
20260831105009 23 174 0.0 4.8 0.00 0.00 0.00 81 1014.8
20260831104822 23 174 0.0 4.8 0.00 0.00 0.00 81 1017.8
20260831104502 23 174 1.6 6.4 0.00 0.00 0.00 81 1014.9
20260831104340 23 174 1.6 6.4 0.00 0.00 0.00 81 1018.0
20260831104033 23 174 1.6 6.4 0.00 0.00 0.00 81 1014.9
20260831103837 23 174 3.2 11.3 0.00 0.00 0.00 81 1017.8
20260831103556 23 174 0.0 11.3 0.00 0.00 0.00 81 1014.8
20260831103314 24 174 1.6 11.3 0.00 0.00 0.00 81 1017.7
20260831103048 23 174 3.2 12.9 0.00 0.00 0.00 81 1014.8
20260831102831 24 199 1.6 6.4 0.00 0.00 0.00 81 1017.7
20260831102539 23 199 1.6 6.4 0.00 0.00 0.00 80 1014.8
20260831102329 24 200 3.2 9.7 0.00 0.00 0.00 80 1017.7
20260831102029 23 200 3.2 9.7 0.00 0.00 0.00 80 1014.8
20260831101829 24 152 3.2 11.3 0.00 0.00 0.00 80 1017.8
20260831101513 23 182 3.2 11.3 0.00 0.00 0.00 80 1014.9
20260831101325 24 158 4.8 11.3 0.00 0.00 0.00 80 1017.8
20260831101003 23 164 3.2 11.3 0.00 0.00 0.00 80 1014.9
20260831100821 24 164 6.4 11.3 0.00 0.00 0.00 80 1018.0
20260831100537 23 186 6.4 11.3 0.00 0.00 0.00 80 1015.0
20260831100320 24 172 6.4 8.0 0.00 0.00 0.00 80 1018.0
20260831100027 24 148 4.8 8.0 0.00 0.00 0.00 80 1014.9
20260831095837 24 184 4.8 9.7 0.00 0.00 0.00 80 1017.8
20260831095550 24 172 3.2 12.9 0.00 0.00 0.00 79 1014.8
20260831095333 24 172 4.8 12.9 0.00 0.00 0.00 79 1017.7
20260831095041 24 172 8.0 12.9 0.00 0.00 0.00 80 1014.8
20260831094831 24 157 6.4 11.3 0.00 0.00 0.00 79 1017.8
20260831094532 24 147 4.8 11.3 0.00 0.00 0.00 79 1014.8
20260831094329 24 148 6.4 11.3 0.00 0.00 0.00 79 1017.7
20260831094025 24 143 4.8 12.9 0.00 0.00 0.00 79 1014.8
20260831093824 25 121 8.0 14.5 0.00 0.00 0.00 79 1017.7
20260831093511 24 155 6.4 14.5 0.00 0.00 0.00 79 1014.6
20260831093320 25 148 8.0 14.5 0.00 0.00 0.00 79 1017.7
20260831093010 24 161 8.0 12.9 0.00 0.00 0.00 78 1014.8
20260831092837 25 163 8.0 12.9 0.00 0.00 0.00 78 1017.8
20260831092536 24 146 6.4 12.9 0.00 0.00 0.00 78 1014.7
20260831092328 25 157 8.0 12.9 0.00 0.00 0.00 78 1017.7
20260831092103 25 152 8.0 12.9 0.00 0.00 0.00 77 1014.7
20260831091824 25 164 9.7 12.9 0.00 0.00 0.00 77 1017.7
20260831091557 25 164 8.0 12.9 0.00 0.00 0.00 77 1014.7
20260831091320 25 174 8.0 14.5 0.00 0.00 0.00 77 1017.6
20260831091048 25 173 8.0 14.5 0.00 0.00 0.00 77 1014.7
20260831090818 25 201 8.0 14.5 0.00 0.00 0.00 77 1017.5
20260831090532 25 184 9.7 14.5 0.00 0.00 0.00 77 1014.6
20260831090346 25 183 9.7 16.1 0.00 0.00 0.00 77 1017.6
20260831090100 25 189 8.0 16.1 0.00 0.00 0.00 76 1014.6
20260831085823 25 191 9.7 16.1 0.00 0.00 0.00 76 1017.6
20260831085552 25 177 8.0 14.5 0.00 0.00 0.00 76 1014.6
20260831085342 25 201 8.0 14.5 0.00 0.00 0.00 76 1017.5
20260831085024 25 194 6.4 14.5 0.00 0.00 0.00 76 1014.6
20260831084818 25 190 8.0 12.9 0.00 0.00 0.00 76 1017.6
20260831084521 25 185 8.0 14.5 0.00 0.00 0.00 76 1014.6
20260831084315 25 184 9.7 14.5 0.00 0.00 0.00 76 1017.6
20260831084015 25 181 8.0 14.5 0.00 0.00 0.00 76 1014.6
20260831083900 25 180 8.0 14.5 0.00 0.00 0.00 75 1017.5
20260831083536 25 201 8.0 14.5 0.00 0.00 0.00 75 1014.6
20260831083330 25 205 9.7 14.5 0.00 0.00 0.00 75 1017.6
20260831083031 25 193 8.0 14.5 0.00 0.00 0.00 75 1014.7
20260831082851 25 212 9.7 14.5 0.00 0.00 0.00 75 1017.6
20260831082552 25 183 6.4 12.9 0.00 0.00 0.00 75 1014.6
20260831082328 25 187 6.4 12.9 0.00 0.00 0.00 75 1017.6
20260831082046 25 195 6.4 12.9 0.00 0.00 0.00 75 1014.8
20260831081826 26 169 8.0 12.9 0.00 0.00 0.00 75 1017.6
20260831081539 25 201 6.4 12.9 0.00 0.00 0.00 75 1014.7
20260831081324 26 200 8.0 12.9 0.00 0.00 0.00 75 1017.7
20260831081034 25 179 6.4 14.5 0.00 0.00 0.00 75 1014.8
20260831080822 26 181 8.0 16.1 0.00 0.00 0.00 74 1017.7
20260831080526 25 201 6.4 16.1 0.00 0.00 0.00 74 1014.9
20260831080322 26 188 9.7 16.1 0.00 0.00 0.00 74 1017.7
20260831080010 26 200 8.0 14.5 0.00 0.00 0.00 74 1014.7
20260831075840 26 177 8.0 14.5 0.00 0.00 0.00 74 1017.6
20260831075600 26 187 9.7 14.5 0.00 0.00 0.00 74 1014.7
20260831075331 26 159 9.7 14.5 0.00 0.00 0.00 74 1017.7
20260831075054 26 177 9.7 14.5 0.00 0.00 0.00 74 1014.8
20260831074830 26 203 8.0 12.9 0.00 0.00 0.00 74 1017.8
20260831074546 26 177 6.4 9.7 0.00 0.00 0.00 74 1014.8
20260831074328 26 177 6.4 9.7 0.00 0.00 0.00 74 1017.8
20260831074038 26 173 6.4 11.3 0.00 0.00 0.00 74 1014.7
20260831073823 26 195 8.0 11.3 0.00 0.00 0.00 74 1017.7
20260831073529 26 148 6.4 11.3 0.00 0.00 0.00 74 1014.9
20260831073341 26 182 6.4 12.9 0.00 0.00 0.00 74 1017.8
20260831073059 26 160 6.4 12.9 0.00 0.00 0.00 74 1014.8
20260831072820 26 195 8.0 12.9 0.00 0.00 0.00 74 1017.9
20260831072551 26 201 8.0 12.9 0.00 0.00 0.00 74 1014.9
20260831072340 26 212 8.0 12.9 0.00 0.00 0.00 74 1017.8
20260831072020 26 210 8.0 12.9 0.00 0.00 0.00 74 1015.0
20260831071816 26 187 8.0 12.9 0.00 0.00 0.00 74 1017.9
20260831071527 26 193 6.4 12.9 0.00 0.00 0.00 74 1014.8
20260831071313 26 199 8.0 12.9 0.00 0.00 0.00 73 1017.8
20260831071103 26 199 6.4 14.5 0.00 0.00 0.00 73 1014.9
20260831070832 26 179 6.4 11.3 0.00 0.00 0.00 73 1017.9
20260831070553 26 173 6.4 11.3 0.00 0.00 0.00 73 1014.9
20260831070313 26 191 6.4 11.3 0.00 0.00 0.00 73 1017.9
20260831070045 26 185 6.4 9.7 0.00 0.00 0.00 73 1014.9
20260831065852 26 152 8.0 11.3 0.00 0.00 0.00 73 1017.7
20260831065506 26 196 4.8 8.0 0.00 0.00 0.00 73 1014.9
20260831065329 26 189 6.4 9.7 0.00 0.00 0.00 72 1017.8
20260831065059 26 177 4.8 8.0 0.00 0.00 0.00 72 1014.9
20260831064847 26 192 4.8 8.0 0.00 0.00 0.00 72 1017.9
20260831064529 26 189 3.2 8.0 0.00 0.00 0.00 72 1015.0
20260831064322 26 189 4.8 8.0 0.00 0.00 0.00 72 1017.9
20260831064022 26 189 4.8 8.0 0.00 0.00 0.00 72 1015.0
20260831063821 26 189 6.4 8.0 0.00 0.00 0.00 72 1018.0
20260831063504 26 164 4.8 9.7 0.00 0.00 0.00 71 1015.0
20260831063317 26 179 4.8 8.0 0.00 0.00 0.00 71 1017.9
20260831063101 26 179 4.8 9.7 0.00 0.00 0.00 71 1015.0
20260831062815 26 181 6.4 11.3 0.00 0.00 0.00 71 1018.0
20260831062556 26 185 4.8 11.3 0.00 0.00 0.00 71 1015.0
20260831062328 27 162 6.4 11.3 0.00 0.00 0.00 71 1018.0
20260831062056 26 185 6.4 11.3 0.00 0.00 0.00 71 1015.0
20260831061844 27 165 8.0 11.3 0.00 0.00 0.00 70 1017.9
20260831061524 26 189 6.4 11.3 0.00 0.00 0.00 70 1014.9
20260831061321 27 161 6.4 11.3 0.00 0.00 0.00 70 1017.9
20260831061006 26 174 6.4 11.3 0.00 0.00 0.00 70 1014.9
20260831060818 27 172 6.4 11.3 0.00 0.00 0.00 70 1017.9
20260831060537 26 172 8.0 11.3 0.00 0.00 0.00 70 1014.9
20260831060315 27 155 8.0 11.3 0.00 0.00 0.00 69 1017.9
20260831060030 26 167 6.4 11.3 0.00 0.00 0.00 69 1014.9
20260831055829 27 173 6.4 11.3 0.00 0.00 0.00 69 1017.9
20260831055602 26 180 6.4 9.7 0.00 0.00 0.00 69 1015.0
20260831055326 27 152 6.4 9.7 0.00 0.00 0.00 69 1017.9
20260831055054 26 184 6.4 11.3 0.00 0.00 0.00 68 1015.0
20260831054823 27 170 8.0 11.3 0.00 0.00 0.00 68 1017.9
20260831054544 26 164 6.4 11.3 0.00 0.00 0.00 68 1015.0
20260831054321 27 157 8.0 12.9 0.00 0.00 0.00 68 1017.9
20260831054036 26 183 6.4 12.9 0.00 0.00 0.00 68 1015.0
20260831053818 27 160 6.4 12.9 0.00 0.00 0.00 68 1018.0
20260831053526 26 162 6.4 11.3 0.00 0.00 0.00 68 1015.0
20260831053317 27 158 6.4 11.3 0.00 0.00 0.00 67 1017.9
20260831053021 26 147 6.4 11.3 0.00 0.00 0.00 67 1015.0
20260831052813 27 175 8.0 12.9 0.00 0.00 0.00 67 1017.9
20260831052603 26 174 4.8 11.3 0.00 0.00 0.00 67 1015.0
20260831052351 27 160 6.4 11.3 0.00 0.00 0.00 67 1017.9
20260831052033 26 164 6.4 11.3 0.00 0.00 0.00 66 1014.9
20260831051829 27 154 8.0 11.3 0.00 0.00 0.00 66 1017.7
20260831051514 27 174 6.4 12.9 0.00 0.00 0.00 66 1014.9
20260831051326 27 150 8.0 11.3 0.00 0.00 0.00 66 1017.8
20260831051007 27 149 6.4 9.7 0.00 0.00 0.00 66 1014.8
20260831050825 27 145 8.0 9.7 0.00 0.00 0.00 65 1017.7
20260831050558 27 163 6.4 11.3 0.00 0.00 0.00 65 1014.9
20260831050342 27 164 8.0 11.3 0.00 0.00 0.00 65 1017.8
20260831050124 27 183 6.4 9.7 0.00 0.00 0.00 65 1014.9
20260831045830 27 160 6.4 9.7 0.00 0.00 0.00 65 1017.7
20260831045555 27 147 4.8 9.7 0.00 0.00 0.00 64 1014.8
20260831045330 27 159 4.8 8.0 0.00 0.00 0.00 64 1017.6
20260831045052 27 159 4.8 9.7 0.00 0.00 0.00 64 1014.7
20260831044831 27 159 4.8 9.7 0.00 0.00 0.00 64 1017.6
20260831044541 27 159 4.8 9.7 0.00 0.00 0.00 64 1014.7
20260831044350 27 158 4.8 9.7 0.00 0.00 0.00 64 1017.6
20260831044002 27 159 4.8 9.7 0.00 0.00 0.00 63 1014.7
20260831043829 27 159 6.4 9.7 0.00 0.00 0.00 63 1017.6
20260831043600 27 159 4.8 9.7 0.00 0.00 0.00 63 1014.6
20260831043326 27 160 4.8 9.7 0.00 0.00 0.00 63 1017.5
20260831043049 27 159 4.8 8.0 0.00 0.00 0.00 63 1014.6
20260831042826 27 170 6.4 8.0 0.00 0.00 0.00 63 1017.5
20260831042543 27 145 4.8 9.7 0.00 0.00 0.00 62 1014.5
20260831042325 27 146 4.8 8.0 0.00 0.00 0.00 62 1017.3
20260831042034 27 149 3.2 8.0 0.00 0.00 0.00 62 1014.4
20260831041825 27 130 4.8 8.0 0.00 0.00 0.00 62 1017.3
20260831041529 27 143 4.8 9.7 0.00 0.00 0.00 61 1014.5
20260831041322 27 158 6.4 11.3 0.00 0.00 0.00 61 1017.3
20260831041023 27 152 4.8 11.3 0.00 0.00 0.00 61 1014.4
20260831040821 27 140 4.8 11.3 0.00 0.00 0.00 61 1017.3
20260831040505 27 158 4.8 11.3 0.00 0.00 0.00 60 1014.4
20260831040320 27 139 6.4 11.3 0.00 0.00 0.00 60 1017.3
20260831040059 27 138 6.4 14.5 0.00 0.00 0.00 60 1014.4
20260831035839 27 158 4.8 14.5 0.00 0.00 0.00 60 1017.2
20260831035528 27 162 6.4 14.5 0.00 0.00 0.00 60 1014.2
20260831035317 27 143 3.2 6.4 0.00 0.00 0.00 59 1017.1
20260831035020 27 154 3.2 12.9 0.00 0.00 0.00 59 1014.2
20260831034815 27 154 4.8 14.5 0.00 0.00 0.00 59 1017.2
20260831034505 27 156 4.8 14.5 0.00 0.00 0.00 59 1014.2
20260831034353 27 162 9.7 14.5 0.00 0.00 0.00 59 1017.2
20260831034039 27 151 6.4 14.5 0.00 0.00 0.00 59 1014.1
20260831033849 27 164 1.6 4.8 0.00 0.00 0.00 59 1017.0
20260831033600 27 165 0.0 0.0 0.00 0.00 0.00 58 1014.0
20260831033327 27 165 0.0 1.6 0.00 0.00 0.00 58 1016.8
20260831033054 27 165 0.0 3.2 0.00 0.00 0.00 58 1013.7
20260831032819 27 164 0.0 3.2 0.00 0.00 0.00 57 1016.8
20260831032530 27 165 0.0 4.8 0.00 0.00 0.00 57 1014.0
20260831032317 28 165 3.2 4.8 0.00 0.00 0.00 57 1016.8
20260831032026 27 165 3.2 4.8 0.00 0.00 0.00 57 1013.9
20260831031815 28 165 3.2 4.8 0.00 0.00 0.00 57 1016.8
20260831031521 27 165 3.2 4.8 0.00 0.00 0.00 57 1013.8
20260831031331 28 165 4.8 4.8 0.00 0.00 0.00 57 1016.7
20260831031042 27 164 3.2 4.8 0.00 0.00 0.00 56 1013.7
20260831030830 28 165 4.8 6.4 0.00 0.00 0.00 56 1016.7
20260831030534 28 165 3.2 6.4 0.00 0.00 0.00 56 1013.6
20260831030329 28 165 4.8 6.4 0.00 0.00 0.00 56 1016.6
20260831030016 28 165 3.2 4.8 0.00 0.00 0.00 56 1013.7
20260831025827 28 165 1.6 4.8 0.00 0.00 0.00 55 1016.7
20260831025506 28 165 0.0 3.2 0.00 0.00 0.00 55 1013.6
20260831025323 28 165 1.6 4.8 0.00 0.00 0.00 55 1016.5
20260831025100 28 165 0.0 1.6 0.00 0.00 0.00 55 1013.6
20260831024821 28 165 0.0 3.2 0.00 0.00 0.00 55 1016.5
20260831024550 28 165 0.0 4.8 0.00 0.00 0.00 55 1013.4
20260831024339 28 165 1.6 4.8 0.00 0.00 0.00 54 1016.4
20260831024036 28 165 1.6 4.8 0.00 0.00 0.00 54 1013.4
20260831023830 28 164 3.2 4.8 0.00 0.00 0.00 54 1016.4
20260831023529 28 166 3.2 8.0 0.00 0.00 0.00 54 1013.3
20260831023327 28 165 3.2 8.0 0.00 0.00 0.00 54 1016.2
20260831023010 28 165 4.8 8.0 0.00 0.00 0.00 54 1013.2
20260831022825 28 165 6.4 8.0 0.00 0.00 0.00 54 1016.2
20260831022606 28 165 4.8 8.0 0.00 0.00 0.00 54 1013.2
20260831022342 29 164 4.8 8.0 0.00 0.00 0.00 53 1016.1
20260831022032 28 164 4.8 8.0 0.00 0.00 0.00 53 1013.1
20260831021818 29 164 6.4 8.0 0.00 0.00 0.00 53 1016.0
20260831021525 28 165 4.8 8.0 0.00 0.00 0.00 53 1013.0
20260831021315 29 164 6.4 6.4 0.00 0.00 0.00 53 1016.0
20260831021015 29 165 4.8 8.0 0.00 0.00 0.00 52 1012.9
20260831020832 29 165 6.4 8.0 0.00 0.00 0.00 52 1015.9
20260831020602 29 165 4.8 8.0 0.00 0.00 0.00 52 1012.9
20260831020351 30 165 6.4 8.0 0.00 0.00 0.00 52 1015.8
20260831020031 29 164 4.8 8.0 0.00 0.00 0.00 52 1012.8
20260831015829 30 164 4.8 8.0 0.00 0.00 0.00 51 1015.8
20260831015514 30 165 3.2 8.0 0.00 0.00 0.00 51 1012.8
20260831015326 30 152 4.8 8.0 0.00 0.00 0.00 51 1015.8
20260831015004 30 152 3.2 4.8 0.00 0.00 0.00 50 1012.8
20260831014824 30 152 3.2 4.8 0.00 0.00 0.00 50 1015.7
20260831014558 30 152 1.6 4.8 0.00 0.00 0.00 50 1012.8
20260831014321 30 152 3.2 4.8 0.00 0.00 0.00 50 1015.7
20260831014048 30 152 1.6 4.8 0.00 0.00 0.00 50 1012.7
20260831013819 30 152 3.2 4.8 0.00 0.00 0.00 49 1015.8
20260831013538 30 152 1.6 4.8 0.00 0.00 0.00 49 1012.7
20260831013317 31 152 1.6 4.8 0.00 0.00 0.00 49 1015.6
20260831013028 30 152 0.0 0.0 0.00 0.00 0.00 49 1012.7
20260831012816 31 152 0.0 0.0 0.00 0.00 0.00 49 1015.6
20260831012520 31 152 0.0 0.0 0.00 0.00 0.00 49 1012.6
20260831012333 31 152 0.0 0.0 0.00 0.00 0.00 48 1015.6
20260831012004 31 152 0.0 0.0 0.00 0.00 0.00 48 1012.6
20260831011831 31 142 0.0 0.0 0.00 0.00 0.00 48 1015.6
20260831011534 31 143 0.0 0.0 0.00 0.00 0.00 48 1012.5
20260831011329 31 139 0.0 0.0 0.00 0.00 0.00 48 1015.6
20260831011024 31 152 0.0 0.0 0.00 0.00 0.00 47 1012.6
20260831010826 31 149 0.0 0.0 0.00 0.00 0.00 47 1015.5
20260831010508 31 156 0.0 0.0 0.00 0.00 0.00 47 1012.6
20260831010322 32 159 0.0 0.0 0.00 0.00 0.00 47 1015.5
20260831010044 31 155 0.0 0.0 0.00 0.00 0.00 47 1012.5
20260831005819 32 147 0.0 0.0 0.00 0.00 0.00 46 1015.5
20260831005530 32 131 0.0 0.0 0.00 0.00 0.00 46 1012.4
20260831005336 32 148 0.0 0.0 0.00 0.00 0.00 46 1015.5
20260831005057 32 156 0.0 0.0 0.00 0.00 0.00 46 1012.4
20260831004814 32 138 0.0 0.0 0.00 0.00 0.00 46 1015.5
20260831004546 32 150 0.0 0.0 0.00 0.00 0.00 46 1012.4
20260831004332 32 158 0.0 0.0 0.00 0.00 0.00 45 1015.4
20260831004044 32 137 0.0 0.0 0.00 0.00 0.00 45 1012.4
20260831003829 32 149 0.0 0.0 0.00 0.00 0.00 45 1015.3
20260831003529 32 145 0.0 0.0 0.00 0.00 0.00 45 1012.4
20260831003325 32 150 0.0 0.0 0.00 0.00 0.00 44 1015.3
20260831003022 32 170 0.0 0.0 0.00 0.00 0.00 44 1012.3
20260831002823 33 132 0.0 0.0 0.00 0.00 0.00 44 1015.3
20260831002501 32 140 0.0 0.0 0.00 0.00 0.00 44 1012.3
20260831002320 33 127 0.0 0.0 0.00 0.00 0.00 44 1015.3
20260831002105 32 127 0.0 0.0 0.00 0.00 0.00 44 1012.4
20260831001819 33 128 0.0 0.0 0.00 0.00 0.00 44 1015.3
20260831001608 33 132 0.0 0.0 0.00 0.00 0.00 44 1012.3
20260831001318 33 149 0.0 0.0 0.00 0.00 0.00 44 1015.4
20260831001100 33 170 0.0 0.0 0.00 0.00 0.00 44 1012.3
20260831000837 33 150 0.0 0.0 0.00 0.00 0.00 44 1015.4
20260831000532 33 152 0.0 0.0 0.00 0.00 0.00 43 1012.3
20260831000318 33 116 0.0 0.0 0.00 0.00 0.00 43 1015.4
20260831000026 33 138 0.0 0.0 0.00 0.00 0.00 43 1012.4
20260830235814 33 166 0.0 0.0 0.00 0.00 0.00 43 1015.4
20260830235511 33 162 0.0 0.0 0.00 0.00 0.00 43 1012.3
20260830235329 33 147 0.0 0.0 0.00 0.00 0.00 43 1015.4
20260830235002 33 150 0.0 0.0 0.00 0.00 0.00 43 1012.4
20260830234827 33 152 0.0 0.0 0.00 0.00 0.00 43 1015.3
20260830234602 33 152 0.0 0.0 0.00 0.00 0.00 43 1012.3